Broken Bow, NE

7:17 PM CDT on April 25, 2018 (GMT -0500)
Broken Bow Municipal

Weather History for KBBW - June, 2013

Change the Weather History Date:

Wednesday, June 12, 2013

  Actual Average Record
Temperature  
Mean Temperature 68 °F 68 °F  
Max Temperature 81 °F 80 °F 101 °F (1952)
Min Temperature 54 °F 56 °F 43 °F (1974)
Degree Days  
Heating Degree Days 0 2  
Month to date heating degree days 40 29  
Since 1 June heating degree days 40 29  
Cooling Degree Days 3 4  
Month to date cooling degree days 25 39  
Year to date cooling degree days 60 73  
Since 1 June cooling degree days 25 39  
Growing Degree Days 18 (Base 50)    
Moisture  
Dew Point 59 °F    
Average Humidity 69    
Maximum Humidity 93    
Minimum Humidity 45    
Precipitation  
Precipitation 0.00 in 0.16 in 2.12 in (1970)
Sea Level Pressure  
Sea Level Pressure 29.89 in    
Wind  
Wind Speed 14 mph (North)    
Max Wind Speed 28 mph    
Max Gust Speed 36 mph    
Visibility 10 miles    
Events      
T = Trace of Precipitation, MM = Missing Value Source: NWS Daily Summary

Daily Weather History Graph

Daily Weather History Graph

Search for Another Location

Airport or City:

Astronomy

Jun. 12, 2013 Rise Set
Actual Time 6:04 AM CDT 9:12 PM CDT
Civil Twilight 5:30 AM CDT 9:46 PM CDT
Nautical Twilight 4:47 AM CDT 10:30 PM CDT
Astronomical Twilight 3:55 AM CDT 11:21 PM CDT
Moon 9:47 AM CDT (6/12) 11:47 PM CDT (6/12)
Length of Visible Light 16h 16m
Length of Day
15h 08m
Waxing Crescent, 14% of the Moon is Illuminated
Jun 12
Waxing Crescent
Jun 16
First Quarter
Jun 23
Full
Jun 29
Last Quarter
Jul 8
New

Hourly Weather History & Observations

Time (CDT) Temp. Heat Index Dew Point Humidity Pressure Visibility Wind Dir Wind Speed Gust Speed Precip Events Conditions
12:53 AM 75.0 °F - 66.0 °F 73% 29.64 in 10.0 mi NNE 16.1 mph 26.5 mph N/A   Clear
1:53 AM 73.9 °F - 66.0 °F 76% 29.64 in 10.0 mi NE 17.3 mph - N/A   Partly Cloudy
2:53 AM 72.0 °F - 64.9 °F 78% 29.67 in 10.0 mi North 9.2 mph - N/A   Clear
3:53 AM 70.0 °F - 64.9 °F 84% 29.68 in 10.0 mi NE 4.6 mph - N/A   Clear
4:53 AM 68.0 °F - 64.9 °F 90% 29.74 in 10.0 mi North 13.8 mph 23.0 mph N/A   Partly Cloudy
5:08 AM 68.0 °F - 66.2 °F 94% 29.81 in 10.0 mi North 21.9 mph 28.8 mph N/A   Mostly Cloudy
5:35 AM 66.2 °F - 64.4 °F 94% 29.83 in 10.0 mi North 20.7 mph 32.2 mph N/A   Scattered Clouds
5:53 AM 66.0 °F - 64.0 °F 93% 29.77 in 10.0 mi North 16.1 mph 26.5 mph N/A   Mostly Cloudy
6:21 AM 66.2 °F - 62.6 °F 88% 29.86 in 10.0 mi North 18.4 mph 26.5 mph N/A   Mostly Cloudy
6:53 AM 66.0 °F - 62.1 °F 87% 29.80 in 10.0 mi North 12.7 mph - N/A   Scattered Clouds
7:53 AM 66.0 °F - 61.0 °F 84% 29.81 in 10.0 mi North 18.4 mph 28.8 mph N/A   Clear
8:53 AM 69.1 °F - 61.0 °F 75% 29.85 in 10.0 mi North 16.1 mph 26.5 mph N/A   Clear
9:53 AM 71.1 °F - 62.1 °F 73% 29.88 in 10.0 mi NW 15.0 mph - N/A   Clear
10:53 AM 73.0 °F - 62.1 °F 68% 29.89 in 10.0 mi NW 13.8 mph - N/A   Clear
11:53 AM 75.9 °F - 61.0 °F 60% 29.90 in 10.0 mi NNW 12.7 mph 21.9 mph N/A   Clear
12:53 PM 79.0 °F - 57.0 °F 47% 29.92 in 10.0 mi NNW 19.6 mph 26.5 mph N/A   Clear
1:53 PM 80.1 °F 80.6 °F 57.9 °F 47% 29.93 in 10.0 mi NNW 15.0 mph 27.6 mph N/A   Clear
2:53 PM 80.1 °F 80.6 °F 57.9 °F 47% 29.95 in 10.0 mi North 21.9 mph 29.9 mph N/A   Clear
3:53 PM 75.9 °F - 57.0 °F 52% 29.97 in 10.0 mi NNW 17.3 mph - N/A   Partly Cloudy
4:53 PM 73.9 °F - 55.9 °F 53% 29.99 in 10.0 mi NNW 19.6 mph - N/A   Clear
5:53 PM 73.0 °F - 53.1 °F 49% 30.01 in 10.0 mi North 17.3 mph 28.8 mph N/A   Clear
6:53 PM 71.1 °F - 52.0 °F 51% 30.01 in 10.0 mi NNW 18.4 mph - N/A   Clear
7:53 PM 69.1 °F - 51.1 °F 53% 30.04 in 10.0 mi North 20.7 mph - N/A   Clear
8:53 PM 64.0 °F - 50.0 °F 60% 30.06 in 10.0 mi North 13.8 mph - N/A   Clear
9:53 PM 60.1 °F - 51.1 °F 72% 30.08 in 10.0 mi North 9.2 mph - N/A   Clear
10:53 PM 57.0 °F - 51.1 °F 81% 30.12 in 10.0 mi North 6.9 mph - N/A   Clear
11:53 PM 55.0 °F - 51.1 °F 86% 30.13 in 10.0 mi North 5.8 mph - N/A   Clear